[[{"header":{"parameterUnit":"m.s-1","parameterCategory":1,"la1":30.2991,"la2":30.254,"lo1":-89.0895,"lo2":-89.0444,"dy":0.0017,"dx":0.0017,"nx":28,"ny":28,"refTime":"2024-12-12T09:00:00:Z","depth":0,"parameterNumber":2,"parameterNumberName":"U-component_of_WINDS"},"data":[0,0,0,0,0,0,0,0,0,0,0,0,0,0,0,0,0,0,0,0,0,0,0,0,0,0,0,0,0,0,0,0,0,0,0,0,0,0,0,0,0,0,0,0,0,0,0,0,0,0,0,0,0,0,0,0,0,0,-5.0363,-5.0363,0,-5.0352,-5.0352,-5.0352,-5.0216,-5.0213,-5.0209,-5.0206,-5.0197,-5.02,-5.0203,0,0,0,0,0,0,0,0,0,0,0,0,0,-5.027,-5.0272,-5.0363,-5.0363,-5.0363,-5.0352,-5.0352,-5.0352,-5.0217,-5.0213,-5.0208,-5.0205,-5.0196,-5.02,-5.0203,0,0,0,0,0,0,0,0,0,0,0,0,0,-5.029,-5.0273,-5.0363,-5.0294,-5.0288,-5.0352,-5.0352,-5.0352,-5.0218,-5.0213,-5.0207,-5.0203,-5.0195,-5.02,-5.0204,-5.0334,0,0,-5.0218,-5.0219,0,0,0,0,0,0,0,0,-5.0289,-5.0294,-5.0305,-5.0299,-5.0292,-5.028,-5.0316,-5.0346,-5.0219,-5.0245,-5.0206,-5.02,-5.0229,-5.0231,-5.024,-5.0334,-5.0334,-5.0218,-5.0221,-5.0223,-5.0224,0,0,0,0,0,0,0,-5.0288,-5.0293,-5.0359,-5.0305,-5.0297,-5.0265,-5.0262,-5.0321,-5.0266,-5.0242,-5.0232,-5.0232,-5.0225,-5.0236,-5.0239,-5.0334,-5.0218,-5.0222,-5.0224,-5.0226,-5.0536,-5.0541,0,0,0,0,0,0,-5.0296,-5.0293,-5.0359,-5.0359,-5.0278,-5.0271,-5.0267,-5.0289,-5.0265,-5.0256,-5.0237,-5.0226,-5.0231,-5.0234,-5.0238,-5.039,-5.0222,-5.0227,-5.0229,-5.053,-5.0537,-5.0543,0,0,0,0,0,0,-5.0294,-5.0303,-5.036,-5.0323,-5.0328,-5.0278,-5.0303,-5.0292,-5.0303,-5.0261,-5.0251,-5.0258,-5.0227,-5.0232,-5.0312,-5.0388,-5.0229,-5.0233,-5.0524,-5.0532,-5.054,-5.0696,0,0,0,0,0,0,-5.0292,-5.0303,-5.0352,-5.0325,-5.033,-5.0433,-5.0308,-5.0295,-5.031,-5.0296,-5.0278,-5.027,-5.0223,-5.0306,-5.0316,-5.0391,-5.0236,-5.0517,-5.0527,-5.0537,-5.0683,-5.0708,-5.0729,0,0,0,0,0,-5.0289,-5.0396,-5.0355,-5.0364,-5.039,-5.0438,-5.0441,-5.0384,-5.0317,-5.0366,-5.0339,-5.0271,-5.0378,-5.0315,-5.0325,-5.0403,-5.0512,-5.0524,-5.0536,-5.0673,-5.0703,-5.0729,0,0,0,0,0,0,-5.0433,-5.0391,-5.0345,-5.0446,-5.0447,-5.0415,-5.0475,-5.0417,-5.0437,-5.0423,-5.0352,-5.0349,-5.0441,-5.0429,-5.0361,-5.0529,-5.0433,-5.0448,-5.0533,-5.0561,-5.0584,-5.0585,-5.024,0,0,0,0,0,-5.0477,-5.0519,-5.048,-5.0573,-5.0576,-5.0526,-5.0544,-5.05,-5.0498,-5.0498,-5.0477,-5.0478,-5.0512,-5.0536,-5.0564,-5.0681,-5.0676,-5.0739,-5.0762,-5.0781,-5.0796,-5.0858,-5.0886,-5.0584,-5.0584,-5.0584,0,0,-5.0567,-5.055,-5.058,-5.0602,-5.0597,-5.0643,-5.0527,-5.058,-5.0614,-5.0506,-5.058,-5.0566,-5.0562,-5.0662,-5.0704,-5.0655,-5.0878,-5.0797,-5.0813,-5.0817,-5.0874,-5.0903,-5.0928,-5.0592,-5.0591,-5.0589,0,0,-5.0756,-5.0746,-5.0823,-5.0821,-5.0815,-5.0781,-5.08,-5.0777,-5.0762,-5.0836,-5.0756,-5.0796,-5.0855,-5.0856,-5.0865,-5.1055,-5.0994,-5.1067,-5.1187,-5.1249,-5.1273,-5.1293,-5.1363,-5.1388,-5.1081,-5.1081,-5.1081,0,-5.087,-5.0935,-5.087,-5.0929,-5.0942,-5.0846,-5.0924,-5.0925,-5.0929,-5.0941,-5.0885,-5.0958,-5.0949,-5.1048,-5.1095,-5.1104,-5.1125,-5.1069,-5.1274,-5.1294,-5.1313,-5.1378,-5.1404,-5.109,-5.1089,-5.1088,-5.1087,0,-5.1075,-5.1122,-5.1185,-5.1191,-5.1211,-5.1279,-5.1226,-5.1254,-5.1208,-5.1181,-5.1258,-5.1243,-5.1268,-5.1288,-5.1244,-5.1381,-5.1351,-5.1286,-5.1188,-5.1352,-5.1412,-5.1437,-5.1103,-5.11,-5.1097,-5.1095,0,0,-5.1355,-5.1325,-5.1349,-5.1351,-5.1338,-5.1373,-5.1438,-5.1461,-5.1487,-5.1493,-5.1547,-5.1599,-5.1539,-5.1549,-5.1505,-5.1559,-5.1712,-5.1487,-5.1486,-5.1531,-5.1864,-5.1915,-5.1944,-5.1671,-5.1675,-5.1679,-5.1865,0,-5.1538,-5.1646,-5.159,-5.1706,-5.1749,-5.1659,-5.1715,-5.1714,-5.169,-5.1724,-5.1697,-5.1737,-5.1654,-5.1659,-5.1708,-5.1683,-5.1779,-5.1669,-5.1721,-5.1724,-5.1726,-5.1975,-5.2028,-5.2205,-5.1888,-5.1892,-5.1895,0,-5.1765,-5.1781,-5.1902,-5.1881,-5.1897,-5.1949,-5.1966,-5.1999,-5.1997,-5.1975,-5.1987,-5.193,-5.1993,-5.1896,-5.1983,-5.191,-5.1928,-5.1919,-5.1924,-5.1928,-5.182,-5.1988,-5.2259,-5.2287,-5.1931,-5.1928,-5.1926,0,-5.1959,-5.201,-5.2089,-5.2093,-5.2071,-5.211,-5.2103,-5.2094,-5.2112,-5.2128,-5.214,-5.2163,-5.2176,-5.2196,-5.2148,-5.2081,-5.2242,-5.214,-5.2228,-5.2229,-5.2267,-5.2265,-5.2547,-5.2277,-5.2276,-5.2276,-5.2275,0,-5.217,-5.2248,-5.2176,-5.2225,-5.2309,-5.2245,-5.2331,-5.2313,-5.2307,-5.2352,-5.2275,-5.2319,-5.2251,-5.2289,-5.2251,-5.233,-5.2336,-5.2322,-5.2311,-5.233,-5.2332,-5.2342,-5.2329,-5.2283,-5.2281,-5.228,-5.2279,0,-5.2401,-5.2356,-5.2436,-5.2408,-5.2403,-5.2467,-5.2444,-5.2488,-5.2459,-5.2517,-5.2527,-5.2481,-5.2522,-5.2475,-5.2511,-5.2486,-5.2593,-5.2564,-5.2594,-5.2586,-5.2677,-5.267,-5.2976,-5.3014,-5.2719,-5.2721,-5.2724,0,-5.2539,-5.2596,-5.2575,-5.2599,-5.2596,-5.2636,-5.2654,-5.2594,-5.2616,-5.2617,-5.2662,-5.2696,-5.272,-5.2788,-5.276,-5.2787,-5.2759,-5.2864,-5.2762,-5.278,-5.2762,-5.276,-5.2766,-5.2885,-5.2889,-5.2892,-5.2894,0,-5.279,-5.2765,-5.2793,-5.2815,-5.2839,-5.2853,-5.2861,-5.2886,-5.2823,-5.2852,-5.2892,-5.291,-5.2947,-5.2982,-5.3002,-5.2995,-5.2936,-5.2926,-5.2948,-5.2968,-5.2984,-5.2978,-5.2652,-5.292,-5.2917,-5.2915,-5.2914,-5.2913,-5.2979,-5.3026,-5.3019,-5.3054,-5.3054,-5.3064,-5.3105,-5.3081,-5.3113,-5.3138,-5.31,-5.3151,-5.3147,-5.3168,-5.3168,-5.3207,-5.3162,-5.3194,-5.3202,-5.3211,-5.3226,-5.2977,-5.3211,-5.321,-5.3209,-5.3208,-5.3208,0,-5.3227,-5.3217,-5.325,-5.3265,-5.3293,-5.3232,-5.3239,-5.3267,-5.3312,-5.3313,-5.3338,-5.3385,-5.3419,-5.3393,-5.3421,-5.3458,-5.3432,-5.3468,-5.3465,-5.3465,-5.3263,-5.3242,-5.3489,-5.3489,-5.3489,-5.3489,-5.3489,-5.3489,-5.3359,-5.3436,-5.3411,-5.3488,-5.3478,-5.3527,-5.3536,-5.3545,-5.3546,-5.3602,-5.3629,-5.3612,-5.3603,-5.363,-5.3659,-5.365,-5.3665,-5.3712,-5.3694,-5.3507,-5.3479,-5.3453,-5.3432,-5.3715,-5.3715,-5.3892,-5.3894,-5.3895]},{"header":{"parameterUnit":"m.s-1","parameterCategory":1,"la1":30.2991,"la2":30.254,"lo1":-89.0895,"lo2":-89.0444,"dy":0.0017,"dx":0.0017,"nx":28,"ny":28,"refTime":"2024-12-12T09:00:00:Z","depth":0,"parameterNumber":3,"parameterNumberName":"V-component_of_WINDS"},"data":[0,0,0,0,0,0,0,0,0,0,0,0,0,0,0,0,0,0,0,0,0,0,0,0,0,0,0,0,0,0,0,0,0,0,0,0,0,0,0,0,0,0,0,0,0,0,0,0,0,0,0,0,0,0,0,0,0,0,-1.5731,-1.5732,0,-1.5783,-1.5784,-1.5785,-1.5763,-1.5762,-1.5761,-1.576,-1.5815,-1.5817,-1.582,0,0,0,0,0,0,0,0,0,0,0,0,0,-1.5613,-1.5615,-1.5731,-1.5732,-1.5732,-1.5783,-1.5784,-1.5785,-1.5764,-1.5762,-1.576,-1.5759,-1.5814,-1.5817,-1.582,0,0,0,0,0,0,0,0,0,0,0,0,0,-1.5665,-1.5616,-1.5731,-1.5728,-1.5728,-1.5783,-1.5784,-1.5785,-1.5764,-1.5762,-1.576,-1.5758,-1.5813,-1.5817,-1.5821,-1.5882,0,0,-1.5833,-1.5834,0,0,0,0,0,0,0,0,-1.5662,-1.5669,-1.5728,-1.5728,-1.5729,-1.5765,-1.5763,-1.5818,-1.5764,-1.575,-1.576,-1.5757,-1.58,-1.5805,-1.5819,-1.5885,-1.5887,-1.5833,-1.5835,-1.5837,-1.5838,0,0,0,0,0,0,0,-1.5658,-1.5667,-1.5752,-1.5729,-1.5729,-1.5724,-1.5729,-1.5773,-1.5785,-1.5751,-1.575,-1.5756,-1.58,-1.5815,-1.582,-1.5888,-1.5833,-1.5836,-1.5839,-1.584,-1.6007,-1.6009,0,0,0,0,0,0,-1.5655,-1.5664,-1.575,-1.5753,-1.569,-1.5728,-1.5734,-1.5755,-1.5784,-1.5787,-1.5758,-1.5755,-1.5809,-1.5815,-1.5822,-1.5896,-1.5837,-1.5841,-1.5843,-1.6005,-1.6007,-1.601,0,0,0,0,0,0,-1.5652,-1.5663,-1.5748,-1.5708,-1.5719,-1.5732,-1.5756,-1.5757,-1.5772,-1.5789,-1.5791,-1.5771,-1.5808,-1.5816,-1.5867,-1.5898,-1.5842,-1.5846,-1.6002,-1.6006,-1.6009,-1.6045,0,0,0,0,0,0,-1.5649,-1.5662,-1.5685,-1.5709,-1.5721,-1.5793,-1.5758,-1.5759,-1.5779,-1.5776,-1.5802,-1.5805,-1.5807,-1.5861,-1.5871,-1.5902,-1.5849,-1.6,-1.6004,-1.6008,-1.6041,-1.6049,-1.6056,0,0,0,0,0,-1.5645,-1.5694,-1.5687,-1.5697,-1.5751,-1.5794,-1.5801,-1.5802,-1.5782,-1.5805,-1.5816,-1.5804,-1.5892,-1.5867,-1.5877,-1.591,-1.5998,-1.6003,-1.6007,-1.6038,-1.6047,-1.6055,0,0,0,0,0,0,-1.5674,-1.5697,-1.5689,-1.5747,-1.5769,-1.5791,-1.5821,-1.5812,-1.5841,-1.5837,-1.5837,-1.5843,-1.5896,-1.5908,-1.5879,-1.5971,-1.5942,-1.5949,-1.5962,-1.5971,-1.5978,-1.5975,-1.5852,0,0,0,0,0,-1.5687,-1.5721,-1.5739,-1.5789,-1.58,-1.5808,-1.5828,-1.5826,-1.5849,-1.5858,-1.5873,-1.5895,-1.5928,-1.595,-1.5981,-1.6042,-1.6048,-1.607,-1.6077,-1.6083,-1.6089,-1.6123,-1.6133,-1.6025,-1.6025,-1.6025,0,0,-1.5715,-1.5732,-1.5753,-1.5795,-1.5811,-1.5846,-1.5816,-1.5855,-1.5881,-1.5864,-1.5913,-1.5924,-1.595,-1.6006,-1.6032,-1.6018,-1.612,-1.6089,-1.6093,-1.6097,-1.6129,-1.6139,-1.6148,-1.6028,-1.6027,-1.6027,0,0,-1.5784,-1.58,-1.5843,-1.586,-1.5885,-1.589,-1.59,-1.5923,-1.593,-1.5979,-1.5967,-1.5998,-1.6054,-1.6073,-1.609,-1.6164,-1.6154,-1.6174,-1.6212,-1.6245,-1.6253,-1.6261,-1.6288,-1.6298,-1.618,-1.618,-1.618,0,-1.5816,-1.5868,-1.5866,-1.5905,-1.5924,-1.5909,-1.5953,-1.597,-1.6004,-1.6018,-1.6001,-1.6071,-1.6087,-1.6148,-1.6166,-1.6179,-1.6191,-1.6172,-1.6252,-1.626,-1.6267,-1.6293,-1.6303,-1.6182,-1.6182,-1.6182,-1.6182,0,-1.5906,-1.5942,-1.5974,-1.6007,-1.6029,-1.607,-1.6075,-1.6097,-1.6093,-1.61,-1.615,-1.6168,-1.6203,-1.6217,-1.6214,-1.6277,-1.6268,-1.6252,-1.6223,-1.628,-1.6304,-1.6314,-1.6186,-1.6185,-1.6184,-1.6184,0,0,-1.5997,-1.6027,-1.6039,-1.6054,-1.608,-1.6108,-1.6148,-1.6181,-1.62,-1.6224,-1.6258,-1.6305,-1.629,-1.6309,-1.6308,-1.6336,-1.6395,-1.6317,-1.6317,-1.6332,-1.6466,-1.6479,-1.6491,-1.6387,-1.6389,-1.6391,-1.6464,0,-1.6069,-1.6139,-1.6138,-1.6204,-1.6237,-1.6223,-1.6258,-1.6278,-1.6285,-1.6314,-1.6322,-1.6356,-1.6333,-1.6344,-1.6372,-1.6382,-1.6422,-1.6376,-1.642,-1.6422,-1.6416,-1.6503,-1.6517,-1.6586,-1.6474,-1.6475,-1.6477,0,-1.6162,-1.6188,-1.6257,-1.6278,-1.6291,-1.6323,-1.6353,-1.6381,-1.6403,-1.6406,-1.6427,-1.642,-1.6461,-1.643,-1.6487,-1.6456,-1.6473,-1.6481,-1.6483,-1.6489,-1.6454,-1.6513,-1.6608,-1.6619,-1.6492,-1.649,-1.6489,0,-1.6223,-1.6275,-1.6323,-1.6336,-1.6361,-1.6383,-1.6395,-1.6414,-1.6434,-1.646,-1.6473,-1.6503,-1.6521,-1.6544,-1.6547,-1.6523,-1.6604,-1.6573,-1.6609,-1.6609,-1.6628,-1.6627,-1.6729,-1.6637,-1.6637,-1.6637,-1.6636,0,-1.6304,-1.6347,-1.6351,-1.638,-1.6428,-1.6425,-1.6473,-1.6482,-1.65,-1.6531,-1.652,-1.655,-1.655,-1.658,-1.6582,-1.6629,-1.6637,-1.6641,-1.6641,-1.6643,-1.6643,-1.6656,-1.6652,-1.6639,-1.6639,-1.6638,-1.6638,0,-1.6381,-1.6385,-1.6436,-1.6455,-1.6461,-1.6495,-1.6511,-1.6539,-1.6544,-1.6584,-1.6593,-1.6602,-1.6637,-1.6641,-1.6682,-1.6683,-1.6741,-1.6735,-1.6733,-1.6733,-1.6769,-1.6766,-1.6884,-1.69,-1.6796,-1.6797,-1.6798,0,-1.6433,-1.6466,-1.6488,-1.6508,-1.652,-1.6552,-1.6572,-1.6571,-1.6592,-1.6619,-1.6644,-1.6677,-1.6704,-1.6761,-1.6771,-1.6803,-1.6799,-1.6838,-1.6803,-1.6804,-1.6801,-1.6799,-1.6803,-1.6845,-1.6846,-1.6847,-1.6848,0,-1.6526,-1.6526,-1.6555,-1.6584,-1.6608,-1.6631,-1.6653,-1.667,-1.6671,-1.6695,-1.673,-1.6751,-1.6792,-1.6826,-1.6857,-1.6869,-1.6859,-1.6858,-1.6868,-1.6871,-1.6869,-1.6872,-1.6753,-1.6856,-1.6855,-1.6855,-1.6854,-1.6854,-1.6593,-1.6621,-1.6641,-1.6673,-1.6689,-1.6709,-1.6737,-1.6745,-1.6774,-1.6807,-1.6804,-1.6844,-1.6864,-1.6904,-1.6918,-1.6949,-1.6936,-1.695,-1.6954,-1.6958,-1.6962,-1.6863,-1.6954,-1.6954,-1.6953,-1.6953,-1.6953,0,-1.6686,-1.6698,-1.6727,-1.6758,-1.6783,-1.677,-1.6793,-1.6815,-1.685,-1.6869,-1.6895,-1.6936,-1.6968,-1.698,-1.7012,-1.7034,-1.7031,-1.7043,-1.7042,-1.7045,-1.6972,-1.696,-1.7045,-1.7045,-1.7045,-1.7045,-1.7045,-1.7045,-1.6738,-1.6785,-1.6787,-1.6842,-1.6853,-1.6891,-1.6905,-1.6924,-1.6939,-1.6985,-1.7011,-1.7019,-1.7035,-1.7068,-1.7097,-1.71,-1.7113,-1.7127,-1.7128,-1.706,-1.705,-1.7042,-1.7031,-1.7129,-1.713,-1.7199,-1.72,-1.72]}]]